[Iaude] MPEC K29: 2023 OE5 [a=1.02,e=0.12,i=1.7,H=26.34]
    mpec at cfa.harvard.edu 
    mpec at cfa.harvard.edu
       
    Sun May 19 10:11:29 EDT 2024
    
    
  
M.P.E.C. 2024-K29                                  Issued 2024 May 19, 14:10 UT
     The Minor Planet Electronic Circulars contain information on unusual
         minor planets, routine data on comets and natural satellites,
         and occasional editorial announcements.  They are published
    on behalf of Division F of the International Astronomical Union by the
          Minor Planet Center, Smithsonian Astrophysical Observatory,
                          Cambridge, MA 02138, U.S.A.
			  
             Prepared using the Tamkin Foundation Computer Network
                              MPC at CFA.HARVARD.EDU
            URL https://www.minorplanetcenter.net/    ISSN 1523-6714
                                    2023 OE5                                    
                           Revision to MPEC 2023-O117                           
Additional Observations:
     K23O05E DC2024 05 17.32428 16 43 48.92 -08 41 47.4          23.0 GVEK029695
     K23O05E DC2024 05 17.33735 16 43 46.51 -08 41 38.5                VEK029695
     K23O05E DC2024 05 18.27596 16 41 13.57 -08 31 37.4                VEK029695
     K23O05E DC2024 05 18.31036 16 41 07.17 -08 31 16.3          23.3 GVEK029695
Observer details:
695 Kitt Peak.  Observer A. F. Tubbiolo.  2.3-m f/9 reflector + CCD.
First and last observations above in comparison with prediction:
Residuals in seconds of arc, reference and Delta-T
240517 695 37.9+  7.1+    240518 695 38.3+  6.5+    MPO782822   -0.00 days
Orbital elements:
2023 OE5                                                 Earth MOID = 0.0011 AU
Epoch 2024 Mar. 31.0 TT = JDT 2460400.5                 Veres                   
M 140.66344              (2000.0)            P               Q                  
n   0.95197240     Peri.  274.30424     +0.59025781     -0.80697868             
a   1.0234182      Node   139.49968     +0.75201758     +0.54094572             
e   0.1246198      Incl.    1.72255     +0.29336883     +0.23698762             
P   1.04           H   26.34          G   0.15           U   2                  
Residuals in seconds of arc
230724 F51  0.1-  0.2-    230809 H21  0.1+  0.1+    230811 H21  0.2+  0.7+
230724 F51  0.1+  0.0     230809 T12  0.1-  0.1-    230811 H21  0.1+  0.6+
230724 F51  0.0   0.0     230809 T12  0.1-  0.2-    230811 H21  0.2+  0.7+
230724 F51  0.0   0.0     230809 T12  0.1-  0.1-    230811 H21  0.0   0.8+
230728 F52  0.3+  0.1+    230809 U52  0.9+  2.2+    230811 033  0.1-  0.2+
230728 F52  0.2+  0.0     230809 U52  1.9-  1.1+    230811 033  0.1+  0.0
230728 F52  0.1+  0.1+    230810 033  0.2+  0.0     230811 033  0.1-  0.1-
230729 807  0.3-  0.4+    230810 033  0.1+  0.1-    230812 L34  0.0   0.4-
230729 807  0.5-  0.1-    230810 033  0.3+  0.0     230812 K87  0.4+  0.3+
230729 807  0.1+  0.3-    230810 H36  0.9+  0.4+    230812 K87  0.2-  0.4+
230729 654  0.0   0.3-    230810 H36  0.8+  0.1+    230812 L34  0.3-  0.4+
230729 654  0.5+  0.1-    230810 H36  0.5+  0.2+    230812 L34  0.1-  0.2+
230729 654  0.2+  0.1-    230810 T12  0.0   0.2-    230812 T12  0.1+  0.1-
230729 654  0.0   0.1-    230810 T12  0.0   0.1-    230812 T12  0.1+  0.1-
230730 H21  0.0   0.4+    230810 T12  0.0   0.1-    230812 T12  0.0   0.1-
230730 H21  0.0   0.5+    230810 T12  0.0   0.1-    230812 T12  0.0   0.1-
230730 H21  0.0   0.3+    230810 T12  0.0   0.1-    230812 T12  0.1+  0.2-
230807 U52  0.7+  0.3-    230810 T12  0.0   0.1-    230812 T12  0.2+  0.2-
230807 U52  0.8+  0.6+    230810 T12  0.0   0.2-    230812 T12  0.1+  0.1-
230807 U52  1.5-  1.3+    230810 T12  0.0   0.1-    230812 T12  0.0   0.1-
230807 L18  0.4+  0.7-    230810 T12  0.0   0.1-    230812 L18  0.7-  0.1-
230807 L18  0.5-  0.8-    230810 T12  0.0   0.1-    230812 L18  0.1+  0.1-
230807 L18  0.1-  0.4-    230810 T12  0.0   0.1-    230812 L18  0.5-  0.2-
230808 H21  0.3+  0.4+    230811 L34  0.2+  0.6+    230813 L34  1.2-  0.9-
230808 H21  0.1+  0.5+    230811 K87  0.0   0.2-    230813 L34  0.3+  0.5-
230808 H21  0.1+  0.5+    230811 K87  0.5+  0.2-    230814 Z84  0.1+  0.1-
230808 H21  0.1+  0.2+    230811 K87  0.1+  0.4-    230814 Z84  0.2-  0.1-
230808 U52  0.4+  0.0     230811 L34  0.1+  0.4-    230814 Z84  0.1+  0.2+
230808 H21  0.1+  0.3+    230811 033  0.4+  0.1+    240517 695  0.2+  0.6-
230808 H21  0.2+  0.3+    230811 033  0.0   0.0     240517 695  0.0   0.1-
230808 U52  0.3-  0.1-    230811 033  0.2+  0.0     240518 695  0.3-  0.1+
230809 H21  0.1-  0.1+    230811 H21  0.0   0.4+    240518 695  0.1+  0.0
230809 H21  0.1-  0.0     230811 H21  0.0   0.6+
Ephemeris:
2023 OE5                 a,e,i = 1.02, 0.12, 2                   q = 0.8959
Date    TT    R. A. (2000) Decl.     Delta      r    Elong.  Phase     V
2024 04 19    17 19 50.5 -13 44 47   0.2065  1.1441   128.4    43.5    24.9
...
2024 05 04    17 11 08.1 -11 10 52   0.1697  1.1502   144.2    30.9    24.1
...
2024 05 12    16 56 54.4 -09 40 09   0.1542  1.1509   154.1    22.5    23.7
...
2024 05 18    16 41 57.9 -08 33 55   0.1455  1.1503   161.4    16.3    23.3
2024 05 19    16 39 10.5 -08 23 23   0.1444  1.1501   162.4    15.4    23.3
2024 05 20    16 36 18.8 -08 13 04   0.1433  1.1499   163.4    14.6    23.2
...
2024 05 26    16 17 56.3 -07 16 43   0.1385  1.1479   166.1    12.2    23.1
...
2024 06 03    15 52 13.1 -06 23 13   0.1370  1.1438   159.7    17.9    23.2
...
2024 06 18    15 12 35.9 -06 17 10   0.1470  1.1314   139.2    35.9    23.9
A. U. Tomatic                (C) Copyright 2024 MPC           M.P.E.C. 2024-K29
    
    
More information about the Iaude
mailing list